Skip Navigation Links
NOAA logo - Click to go to the NOAA homepage
NOAA's National Weather Service
Alaska Aviation Weather Unit
  NWS logo - Click to go to the NWS homepage
Left Navbar Graphic     22 AKDT = 06 GMT

   
NOAA is celebrating 200 years of science, service, and stewardship. Visit the NOAA 200th celebration Web site to learn more.
USA.gov is the U.S. Government's official Web portal to all Federal, state and local government Web resources and services.
Facebook
NWS on Facebook

Important Change Regarding the AAWU Web Presence

 

Over the last several months, the AAWU has been working to navigate its webpages to a nationally supported server. Security, as well as other needs, have necessitated the change.  In the process, we have made an effort to enhance the functionality of our website, as well as some of our products. As of June 20, 2017, aawu.arh.noaa.gov will be discontinued. The new AAWU web address is weather.gov/aawu. It is now live and will run in-parallel with the old site until it is discontinued. Please send any feedback or questions regarding the new webpages to nws.ar.aawu.webauthors@noaa.gov.  Thank you for your patience during this time of transition.
AAWU Home :: Display TAF Add Bookmark
TAF PAKT 280522Z 2806/2906 VRB04KT P6SM SCT200
     FM282100 13012KT P6SM FEW070 AMD LTD TO CLD VIS AND WIND
      2806/2815=
METAR PAKT 280053Z 31009KT 10SM CLR 17/05 A3015 RMK SLP211 HARBOR WIND
     27015KT T01720050 VIA AUTODIAL=

METAR PAKT 280153Z 31008KT 10SM CLR 17/06 A3014=

METAR PAKT 280253Z 31007KT 10SM CLR 16/07 A3012=

METAR PAKT 280353Z 31008KT 10SM CLR 14/06 A3012=

METAR PAKT 280453Z 31007KT 10SM CLR 14/06 A3011=

METAR PAKT 280553Z AUTO 30008KT 10SM CLR 13/06 A3011=


NOAA's National Weather Service
Alaska Aviation Weather Unit
6930 Sand Lake Road
Anchorage, AK 99502-1845
Disclaimer
Credits
Glossary
Privacy Policy
About Us
Career Opportunities
Contact AAWU Internet Services Site last modified: April, 17th 2012